KD4PMP Weather Reports


time (UTC)temp
F
wind
direction
speed
knots
gust
knots
rain 1hr
in
rain 24hr
in
rain mn
in
humidity
%
barometer
mb
20260906022432 87 124 0.0 1.7 0.00 0.00 0.00 74 1009.7
20260906021425 88 124 1.7 2.6 0.00 0.00 0.00 70 1009.6
20260906020419 89 116 0.0 3.5 0.00 0.00 0.00 69 1009.3
20260906015412 89 102 1.7 2.6 0.00 0.00 0.00 67 1009.2
20260906014406 89 318 0.0 4.3 0.00 0.00 0.00 66 1009.3
20260906013400 89 115 0.0 7.8 0.00 0.00 0.00 65 1009.2
20260906012353 89 105 3.5 7.0 0.00 0.00 0.00 66 1009.3
20260906011347 89 336 0.9 0.9 0.00 0.00 0.00 67 1009.2
20260906010341 90 336 0.0 0.9 0.00 0.00 0.00 66 1009.1
20260906005334 90 336 0.0 0.9 0.00 0.00 0.00 64 1009.1
20260906004328 91 336 0.0 0.0 0.00 0.00 0.00 63 1009.0
20260906003322 92 336 0.0 0.0 0.00 0.00 0.00 61 1009.1
20260906002315 93 336 0.0 0.0 0.00 0.00 0.00 59 1009.1
20260906001309 94 336 0.0 1.7 0.00 0.00 0.00 57 1009.1
20260906000303 95 336 0.0 2.6 0.00 0.00 0.00 56 1008.9
20260905235256 95 328 1.7 3.5 0.00 0.00 0.00 54 1009.0
20260905234249 96 298 1.7 5.2 0.00 0.00 0.00 53 1009.2
20260905233243 97 300 4.3 6.1 0.00 0.00 0.00 52 1009.2
20260905232237 98 304 1.7 5.2 0.00 0.00 0.00 51 1009.2
20260905231230 98 248 0.9 7.0 0.00 0.00 0.00 50 1009.0
20260905230224 99 322 3.5 5.2 0.00 0.00 0.00 50 1009.0
20260905225218 100 350 2.6 7.0 0.00 0.00 0.00 49 1008.9
20260905224211 100 300 2.6 4.3 0.00 0.00 0.00 48 1009.0
20260905223204 100 228 3.5 5.2 0.00 0.00 0.00 46 1009.1
20260905222158 100 281 0.9 8.7 0.00 0.00 0.00 46 1009.1
20260905221152 101 313 3.5 8.7 0.00 0.00 0.00 44 1009.0
20260905220145 101 312 3.5 6.1 0.00 0.00 0.00 45 1009.0
20260905215139 101 237 2.6 7.0 0.00 0.00 0.00 44 1009.0
20260905214132 101 309 7.0 7.0 0.00 0.00 0.00 44 1009.1
20260905213126 101 305 0.9 8.7 0.00 0.00 0.00 45 1009.1
20260905212120 101 331 2.6 7.0 0.00 0.00 0.00 47 1009.0
20260905211113 101 275 2.6 7.8 0.00 0.00 0.00 44 1009.2
20260905210107 102 264 3.5 9.6 0.00 0.00 0.00 43 1009.3
20260905205100 102 264 6.1 7.8 0.00 0.00 0.00 45 1009.5
20260905204054 102 115 1.7 7.0 0.00 0.00 0.00 44 1009.4
20260905203047 102 323 2.6 3.5 0.00 0.00 0.00 47 1009.6
20260905202041 101 298 0.9 5.2 0.00 0.00 0.00 45 1009.8
20260905201035 100 238 1.7 6.1 0.00 0.00 0.00 46 1010.1
20260905200028 101 317 3.5 7.0 0.00 0.00 0.00 45 1010.3
20260905195021 101 289 0.9 5.2 0.00 0.00 0.00 46 1010.4
20260905194014 101 248 0.9 2.6 0.00 0.00 0.00 46 1010.4
20260905193008 101 206 0.0 5.2 0.00 0.00 0.00 46 1010.5
20260905192002 102 260 2.6 4.3 0.00 0.00 0.00 47 1010.5
20260905190956 101 222 2.6 5.2 0.00 0.00 0.00 48 1010.7
20260905185949 100 207 0.9 3.5 0.00 0.00 0.00 50 1011.0
20260905184943 99 295 0.9 4.3 0.00 0.00 0.00 52 1011.1
20260905183937 99 259 2.6 3.5 0.00 0.00 0.00 53 1011.3
20260905182930 99 244 0.0 9.6 0.00 0.00 0.00 54 1011.5
20260905181924 98 109 0.0 7.0 0.00 0.00 0.00 55 1011.6
20260905180918 97 290 1.7 5.2 0.00 0.00 0.00 56 1011.8
20260905175911 96 201 1.7 6.1 0.00 0.00 0.00 55 1011.9
20260905174905 96 113 6.1 6.1 0.00 0.00 0.00 53 1011.9
20260905173859 97 128 2.6 3.5 0.00 0.00 0.00 54 1012.0
20260905172852 96 19 1.7 3.5 0.00 0.00 0.00 54 1012.0
20260905171846 96 40 2.6 2.6 0.00 0.00 0.00 53 1012.1
20260905170840 95 272 3.5 7.8 0.00 0.00 0.00 57 1012.3
20260905165833 95 121 2.6 3.5 0.00 0.00 0.00 59 1012.4
20260905164827 94 331 0.0 3.5 0.00 0.00 0.00 59 1012.5
20260905163821 93 65 0.0 2.6 0.00 0.00 0.00 62 1012.6
20260905162814 92 96 0.9 6.1 0.00 0.00 0.00 60 1012.8
20260905161808 93 92 3.5 3.5 0.00 0.00 0.00 62 1012.8
20260905160801 92 96 0.0 3.5 0.00 0.00 0.00 65 1013.0
20260905155755 92 77 1.7 2.6 0.00 0.00 0.00 66 1013.2
20260905154748 90 43 0.0 3.5 0.00 0.00 0.00 70 1013.2
20260905153742 89 292 0.9 3.5 0.00 0.00 0.00 72 1013.3
20260905152735 88 115 1.7 1.7 0.00 0.00 0.00 76 1013.3
20260905151729 86 116 0.0 1.7 0.00 0.00 0.00 79 1013.4
20260905150723 85 116 0.0 1.7 0.00 0.00 0.00 81 1013.5
20260905145717 83 112 0.0 0.0 0.00 0.00 0.00 83 1013.4
20260905144710 81 112 0.0 0.0 0.00 0.00 0.00 85 1013.4
20260905143704 81 112 0.0 0.0 0.00 0.00 0.00 87 1013.5
20260905142658 80 112 0.0 0.9 0.00 0.00 0.00 87 1013.4
20260905141652 80 112 0.0 1.7 0.00 0.00 0.00 89 1013.5
20260905140645 79 110 0.0 1.7 0.00 0.00 0.00 90 1013.5
20260905135639 78 110 0.9 2.6 0.00 0.00 0.00 91 1013.4
20260905134633 78 110 0.0 0.9 0.00 0.00 0.00 92 1013.4
20260905133626 78 110 0.9 1.7 0.00 0.00 0.00 92 1013.4
20260905132620 77 110 0.9 1.7 0.00 0.00 0.00 94 1013.5
20260905131613 76 110 0.0 0.0 0.00 0.00 0.00 95 1013.6
20260905130607 76 110 0.0 0.0 0.00 0.00 0.00 95 1013.5
20260905125600 76 110 0.0 0.0 0.00 0.00 0.00 96 1013.6
20260905124554 75 110 0.0 0.0 0.00 0.00 0.00 97 1013.7
20260905123548 75 110 0.0 0.0 0.00 0.00 0.00 97 1013.8
20260905122541 74 110 0.0 0.0 0.00 0.00 0.00 98 1013.5
20260905121535 74 110 0.0 0.0 0.00 0.00 0.00 97 1013.4
20260905120529 74 110 0.0 0.0 0.00 0.00 0.00 97 1013.2
20260905115522 74 110 0.0 0.0 0.00 0.00 0.00 97 1013.1
20260905114516 74 110 0.0 0.0 0.00 0.00 0.00 97 1013.0
20260905113510 74 110 0.0 0.0 0.00 0.00 0.00 97 1012.9
20260905112503 74 110 0.0 0.0 0.00 0.00 0.00 97 1012.7
20260905111457 74 110 0.0 0.0 0.00 0.00 0.00 97 1012.7
20260905110451 74 110 0.0 0.0 0.00 0.00 0.00 97 1012.5
20260905105444 74 110 0.0 0.0 0.00 0.00 0.00 97 1012.3
20260905104438 74 110 0.0 0.0 0.00 0.00 0.00 97 1012.2
20260905103431 74 110 0.0 0.0 0.00 0.00 0.00 97 1012.2
20260905102425 74 110 0.0 0.0 0.00 0.00 0.00 97 1012.1
20260905101419 74 110 0.0 0.0 0.00 0.00 0.00 97 1012.1
20260905100412 74 110 0.0 0.0 0.00 0.00 0.00 97 1012.0
20260905095405 74 110 0.0 0.0 0.00 0.00 0.00 97 1011.9
20260905094359 74 110 0.0 0.0 0.00 0.00 0.00 96 1011.9
20260905093353 74 110 0.0 0.0 0.00 0.00 0.00 96 1011.9
20260905092347 74 110 0.0 0.0 0.00 0.00 0.00 96 1012.0
20260905091340 74 110 0.0 0.0 0.00 0.00 0.00 96 1011.9
20260905090334 74 110 0.0 0.0 0.00 0.00 0.00 96 1011.9
20260905085327 74 110 0.0 0.0 0.00 0.00 0.00 96 1011.8
20260905084321 74 110 0.0 0.0 0.00 0.00 0.00 96 1011.9
20260905083314 74 110 0.0 0.0 0.00 0.00 0.00 96 1012.0
20260905082308 75 110 0.0 0.0 0.00 0.00 0.00 96 1011.9
20260905081301 75 110 0.0 0.0 0.00 0.00 0.00 96 1012.2
20260905080255 75 110 0.0 0.0 0.00 0.00 0.00 96 1012.2
20260905075249 75 110 0.0 0.0 0.00 0.00 0.00 96 1012.2
20260905074242 75 110 0.0 0.0 0.00 0.00 0.00 96 1012.2
20260905073236 75 110 0.0 0.0 0.00 0.00 0.00 96 1012.2
20260905072229 75 110 0.0 0.0 0.00 0.00 0.00 96 1012.1
20260905071223 75 110 0.0 0.0 0.00 0.00 0.00 96 1012.1
20260905070216 75 110 0.0 0.0 0.00 0.00 0.00 95 1012.2
20260905065210 76 110 0.0 0.0 0.00 0.00 0.00 95 1012.2
20260905064204 76 110 0.0 0.0 0.00 0.00 0.00 95 1012.2
20260905063157 76 110 0.0 0.0 0.00 0.00 0.00 95 1012.2
20260905062151 76 110 0.0 0.0 0.00 0.00 0.00 95 1012.2
20260905061145 76 110 0.0 0.0 0.00 0.00 0.00 95 1012.2
20260905060138 76 110 0.0 0.0 0.00 0.00 0.00 95 1012.1
20260905055132 76 110 0.0 0.9 0.00 0.00 0.00 95 1012.2
20260905054126 76 110 0.0 0.9 0.00 0.00 0.00 95 1012.3
20260905053119 76 110 0.0 0.0 0.00 0.00 0.00 95 1012.2
20260905052113 76 110 0.0 0.0 0.00 0.00 0.00 94 1012.4
20260905051106 76 110 0.0 1.7 0.00 0.00 0.00 95 1012.4
20260905050100 76 110 0.0 0.9 0.00 0.00 0.00 95 1012.3
20260905045053 76 110 0.0 0.9 0.00 0.00 0.00 94 1012.3
20260905044047 77 110 0.0 0.0 0.00 0.00 0.00 95 1012.4
20260905043041 77 110 0.0 0.0 0.00 0.00 0.00 94 1012.4
20260905042034 77 110 0.0 0.0 0.00 0.00 0.00 94 1012.5
20260905041028 77 110 0.0 0.9 0.00 0.00 0.00 94 1012.6
20260905040022 77 110 0.0 0.9 0.00 0.00 0.00 94 1012.5
20260905035015 77 110 0.0 0.9 0.00 0.00 0.00 94 1012.6
20260905034009 77 110 0.0 0.0 0.00 0.00 0.00 94 1012.6
20260905033002 77 110 0.0 0.0 0.00 0.00 0.00 94 1012.6
20260905031956 77 110 0.0 0.0 0.00 0.00 0.00 94 1012.7
20260905030950 77 110 0.0 0.9 0.00 0.00 0.00 94 1012.8
20260905025943 78 110 0.0 0.9 0.00 0.00 0.00 93 1012.9
20260905024937 78 110 0.0 1.7 0.00 0.00 0.00 94 1013.1
20260905023931 77 110 0.0 0.0 0.00 0.00 0.00 94 1012.9
20260905022924 78 110 0.0 0.0 0.00 0.00 0.00 94 1013.0